| time (UTC) | temp C | wind direction | speed KPH | gust KPH | rain 1hr cm | rain 24hr cm | rain mn cm | humidity % | barometer mb |
| 20260507090006 | 13 | 31 | 4.8 | 12.9 | 0.00 | 0.00 | 0.00 | 74 | 1009.7 |
| 20260507085555 | 12 | 159 | 3.2 | 11.3 | 0.00 | 0.00 | 0.00 | 75 | 1009.7 |
| 20260507085042 | 12 | 186 | 3.2 | 11.3 | 0.00 | 0.00 | 0.00 | 76 | 1009.8 |
| 20260507084507 | 12 | 146 | 0.0 | 9.7 | 0.00 | 0.00 | 0.00 | 78 | 1009.9 |
| 20260507084053 | 11 | 177 | 0.0 | 9.7 | 0.00 | 0.00 | 0.00 | 79 | 1010.0 |
| 20260507083541 | 11 | 325 | 0.0 | 4.8 | 0.00 | 0.00 | 0.00 | 80 | 1010.0 |
| 20260507083103 | 11 | 348 | 0.0 | 4.8 | 0.00 | 0.00 | 0.00 | 79 | 1010.0 |
| 20260507082549 | 11 | 215 | 0.0 | 6.4 | 0.00 | 0.00 | 0.00 | 79 | 1010.1 |
| 20260507082038 | 11 | 223 | 3.2 | 8.0 | 0.00 | 0.00 | 0.00 | 79 | 1010.1 |
| 20260507081510 | 11 | 194 | 3.2 | 8.0 | 0.00 | 0.00 | 0.00 | 79 | 1010.0 |
| 20260507081058 | 11 | 169 | 3.2 | 8.0 | 0.00 | 0.00 | 0.00 | 79 | 1009.9 |
| 20260507080549 | 11 | 204 | 1.6 | 6.4 | 0.00 | 0.00 | 0.00 | 80 | 1009.9 |
| 20260507080005 | 11 | 319 | 1.6 | 6.4 | 0.00 | 0.00 | 0.00 | 81 | 1010.0 |
| 20260507075559 | 11 | 5 | 0.0 | 1.6 | 0.00 | 0.00 | 0.00 | 80 | 1010.0 |
| 20260507075044 | 11 | 186 | 0.0 | 3.2 | 0.00 | 0.00 | 0.00 | 80 | 1010.1 |
| 20260507074505 | 11 | 186 | 0.0 | 4.8 | 0.00 | 0.00 | 0.00 | 80 | 1010.1 |
| 20260507074056 | 11 | 168 | 0.0 | 1.6 | 0.00 | 0.00 | 0.00 | 81 | 1010.2 |
| 20260507073543 | 10 | 168 | 0.0 | 4.8 | 0.00 | 0.00 | 0.00 | 83 | 1010.1 |
| 20260507073001 | 10 | 196 | 1.6 | 4.8 | 0.00 | 0.00 | 0.00 | 83 | 1010.0 |
| 20260507072551 | 10 | 180 | 0.0 | 3.2 | 0.00 | 0.00 | 0.00 | 83 | 1010.0 |
| 20260507072039 | 10 | 211 | 0.0 | 0.0 | 0.00 | 0.00 | 0.00 | 85 | 1010.0 |
| 20260507071607 | 10 | 234 | 0.0 | 0.0 | 0.00 | 0.00 | 0.00 | 85 | 1010.0 |
| 20260507071050 | 9 | 234 | 0.0 | 0.0 | 0.00 | 0.00 | 0.00 | 87 | 1009.9 |
| 20260507070538 | 8 | 325 | 0.0 | 0.0 | 0.00 | 0.00 | 0.00 | 89 | 1010.0 |
| 20260507070010 | 8 | 325 | 0.0 | 0.0 | 0.00 | 0.00 | 0.00 | 90 | 1010.0 |
| 20260507065557 | 8 | 325 | 0.0 | 0.0 | 0.00 | 0.00 | 0.00 | 90 | 1009.9 |
| 20260507065044 | 7 | 61 | 0.0 | 0.0 | 0.00 | 0.00 | 0.00 | 91 | 1009.9 |
| 20260507064504 | 7 | 65 | 0.0 | 0.0 | 0.00 | 0.00 | 0.00 | 92 | 1009.9 |
| 20260507064059 | 7 | 28 | 0.0 | 0.0 | 0.00 | 0.00 | 0.00 | 91 | 1009.9 |
| 20260507063544 | 7 | 57 | 0.0 | 0.0 | 0.00 | 0.00 | 0.00 | 91 | 1010.1 |
| 20260507063010 | 7 | 57 | 0.0 | 0.0 | 0.00 | 0.00 | 0.00 | 91 | 1010.0 |
| 20260507062605 | 7 | 57 | 0.0 | 0.0 | 0.00 | 0.00 | 0.00 | 92 | 1010.0 |
| 20260507062049 | 7 | 57 | 0.0 | 0.0 | 0.00 | 0.00 | 0.00 | 92 | 1009.9 |
| 20260507061509 | 7 | 57 | 0.0 | 0.0 | 0.00 | 0.00 | 0.00 | 92 | 1009.9 |
| 20260507061059 | 7 | 57 | 0.0 | 0.0 | 0.00 | 0.00 | 0.00 | 92 | 1009.8 |
| 20260507060547 | 6 | 57 | 0.0 | 0.0 | 0.00 | 0.00 | 0.00 | 92 | 1009.8 |
| 20260507060003 | 6 | 19 | 0.0 | 0.0 | 0.00 | 0.00 | 0.00 | 91 | 1009.8 |
| 20260507055554 | 6 | 31 | 0.0 | 0.0 | 0.00 | 0.00 | 0.00 | 91 | 1009.7 |
| 20260507055042 | 6 | 37 | 0.0 | 0.0 | 0.00 | 0.00 | 0.00 | 90 | 1009.7 |
| 20260507054511 | 6 | 5 | 0.0 | 0.0 | 0.00 | 0.00 | 0.00 | 90 | 1009.6 |
| 20260507054100 | 6 | 103 | 0.0 | 0.0 | 0.00 | 0.00 | 0.00 | 90 | 1009.6 |
| 20260507053552 | 6 | 336 | 0.0 | 0.0 | 0.00 | 0.00 | 0.00 | 91 | 1009.6 |
| 20260507053007 | 6 | 331 | 0.0 | 1.6 | 0.00 | 0.00 | 0.00 | 92 | 1009.7 |
| 20260507052556 | 6 | 329 | 0.0 | 1.6 | 0.00 | 0.00 | 0.00 | 92 | 1009.7 |
| 20260507052045 | 6 | 194 | 0.0 | 0.0 | 0.00 | 0.00 | 0.00 | 92 | 1009.6 |
| 20260507051505 | 6 | 194 | 0.0 | 0.0 | 0.00 | 0.00 | 0.00 | 91 | 1009.6 |
| 20260507051056 | 6 | 38 | 0.0 | 0.0 | 0.00 | 0.00 | 0.00 | 91 | 1009.5 |
| 20260507050543 | 6 | 24 | 0.0 | 0.0 | 0.00 | 0.00 | 0.00 | 91 | 1009.6 |
| 20260507050007 | 6 | 24 | 0.0 | 0.0 | 0.00 | 0.00 | 0.00 | 91 | 1009.6 |
| 20260507045553 | 6 | 24 | 0.0 | 0.0 | 0.00 | 0.00 | 0.00 | 90 | 1009.7 |
| 20260507045041 | 6 | 40 | 0.0 | 0.0 | 0.00 | 0.00 | 0.00 | 90 | 1009.7 |
| 20260507044501 | 6 | 34 | 0.0 | 0.0 | 0.00 | 0.00 | 0.00 | 91 | 1009.6 |
| 20260507044051 | 6 | 34 | 0.0 | 0.0 | 0.00 | 0.00 | 0.00 | 90 | 1009.8 |
| 20260507043540 | 6 | 26 | 0.0 | 0.0 | 0.00 | 0.00 | 0.00 | 90 | 1009.7 |
| 20260507043101 | 6 | 26 | 0.0 | 0.0 | 0.00 | 0.00 | 0.00 | 90 | 1009.7 |
| 20260507042547 | 6 | 26 | 0.0 | 0.0 | 0.00 | 0.00 | 0.00 | 90 | 1009.7 |
| 20260507042036 | 6 | 26 | 0.0 | 0.0 | 0.00 | 0.00 | 0.00 | 90 | 1009.6 |
| 20260507041605 | 6 | 26 | 0.0 | 0.0 | 0.00 | 0.00 | 0.00 | 90 | 1009.5 |
| 20260507041050 | 6 | 27 | 0.0 | 0.0 | 0.00 | 0.00 | 0.00 | 90 | 1009.5 |
| 20260507040535 | 6 | 35 | 0.0 | 0.0 | 0.00 | 0.00 | 0.00 | 89 | 1009.7 |
| 20260507040001 | 6 | 31 | 0.0 | 0.0 | 0.00 | 0.00 | 0.00 | 90 | 1009.7 |
| 20260507035554 | 6 | 20 | 0.0 | 0.0 | 0.00 | 0.00 | 0.00 | 90 | 1009.7 |
| 20260507035040 | 6 | 28 | 0.0 | 0.0 | 0.00 | 0.00 | 0.00 | 90 | 1009.8 |
| 20260507034509 | 6 | 28 | 0.0 | 0.0 | 0.00 | 0.00 | 0.00 | 90 | 1009.8 |
| 20260507034102 | 6 | 42 | 0.0 | 0.0 | 0.00 | 0.00 | 0.00 | 90 | 1009.8 |
| 20260507033549 | 6 | 73 | 0.0 | 0.0 | 0.00 | 0.00 | 0.00 | 89 | 1009.7 |
| 20260507033007 | 6 | 92 | 0.0 | 0.0 | 0.00 | 0.00 | 0.00 | 89 | 1009.7 |
| 20260507032602 | 6 | 38 | 0.0 | 0.0 | 0.00 | 0.00 | 0.00 | 90 | 1009.7 |
| 20260507032045 | 7 | 34 | 0.0 | 0.0 | 0.00 | 0.00 | 0.00 | 89 | 1009.7 |
| 20260507031514 | 7 | 13 | 0.0 | 0.0 | 0.00 | 0.00 | 0.00 | 90 | 1009.7 |
| 20260507031003 | 7 | 11 | 0.0 | 0.0 | 0.00 | 0.00 | 0.00 | 89 | 1009.7 |
| 20260507030554 | 7 | 39 | 0.0 | 0.0 | 0.00 | 0.00 | 0.00 | 90 | 1009.7 |
| 20260507030013 | 7 | 40 | 0.0 | 0.0 | 0.00 | 0.00 | 0.00 | 89 | 1009.8 |
| 20260507025602 | 7 | 33 | 0.0 | 0.0 | 0.00 | 0.00 | 0.00 | 89 | 1009.8 |
| 20260507025049 | 7 | 32 | 0.0 | 0.0 | 0.00 | 0.00 | 0.00 | 89 | 1009.8 |
| 20260507024509 | 7 | 27 | 0.0 | 0.0 | 0.00 | 0.00 | 0.00 | 89 | 1009.8 |
| 20260507024101 | 7 | 24 | 0.0 | 0.0 | 0.00 | 0.00 | 0.00 | 89 | 1009.8 |
| 20260507023548 | 7 | 30 | 0.0 | 0.0 | 0.00 | 0.00 | 0.00 | 89 | 1010.0 |
| 20260507023006 | 7 | 22 | 0.0 | 0.0 | 0.00 | 0.00 | 0.00 | 89 | 1009.9 |
| 20260507022557 | 7 | 28 | 0.0 | 0.0 | 0.00 | 0.00 | 0.00 | 88 | 1009.9 |
| 20260507022045 | 7 | 25 | 0.0 | 0.0 | 0.00 | 0.00 | 0.00 | 88 | 1009.8 |
| 20260507021505 | 7 | 19 | 0.0 | 0.0 | 0.00 | 0.00 | 0.00 | 88 | 1009.9 |
| 20260507021056 | 7 | 19 | 0.0 | 0.0 | 0.00 | 0.00 | 0.00 | 88 | 1009.9 |
| 20260507020544 | 7 | 28 | 0.0 | 0.0 | 0.00 | 0.00 | 0.00 | 88 | 1010.0 |
| 20260507020002 | 7 | 28 | 0.0 | 0.0 | 0.00 | 0.00 | 0.00 | 87 | 1009.9 |
| 20260507015558 | 7 | 34 | 0.0 | 0.0 | 0.00 | 0.00 | 0.00 | 87 | 1010.0 |
| 20260507015040 | 7 | 34 | 0.0 | 0.0 | 0.00 | 0.00 | 0.00 | 86 | 1010.0 |
| 20260507014624 | 7 | 27 | 0.0 | 0.0 | 0.00 | 0.00 | 0.00 | 86 | 1010.1 |
| 20260507014050 | 7 | 20 | 0.0 | 0.0 | 0.00 | 0.00 | 0.00 | 86 | 1010.1 |
| 20260507013539 | 7 | 20 | 0.0 | 0.0 | 0.00 | 0.00 | 0.00 | 86 | 1010.1 |
| 20260507013005 | 7 | 24 | 0.0 | 0.0 | 0.00 | 0.00 | 0.00 | 86 | 1010.1 |
| 20260507012556 | 7 | 30 | 0.0 | 0.0 | 0.00 | 0.00 | 0.00 | 85 | 1010.2 |
| 20260507012045 | 7 | 27 | 0.0 | 0.0 | 0.00 | 0.00 | 0.00 | 86 | 1010.2 |
| 20260507011506 | 7 | 32 | 0.0 | 0.0 | 0.00 | 0.00 | 0.00 | 86 | 1010.2 |
| 20260507011055 | 7 | 34 | 0.0 | 0.0 | 0.00 | 0.00 | 0.00 | 85 | 1010.2 |
| 20260507010544 | 7 | 24 | 0.0 | 0.0 | 0.00 | 0.00 | 0.00 | 85 | 1010.2 |
| 20260507010002 | 7 | 53 | 0.0 | 0.0 | 0.00 | 0.00 | 0.00 | 84 | 1010.3 |
| 20260507005554 | 7 | 24 | 0.0 | 0.0 | 0.00 | 0.00 | 0.00 | 84 | 1010.3 |
| 20260507005043 | 7 | 28 | 0.0 | 0.0 | 0.00 | 0.00 | 0.00 | 84 | 1010.3 |
| 20260507004509 | 7 | 32 | 0.0 | 0.0 | 0.00 | 0.00 | 0.00 | 84 | 1010.3 |
| 20260507004100 | 8 | 26 | 0.0 | 0.0 | 0.00 | 0.00 | 0.00 | 84 | 1010.4 |
| 20260507003551 | 8 | 30 | 0.0 | 0.0 | 0.00 | 0.00 | 0.00 | 84 | 1010.4 |
| 20260507003007 | 8 | 30 | 0.0 | 0.0 | 0.00 | 0.00 | 0.00 | 83 | 1010.4 |
| 20260507002557 | 8 | 27 | 0.0 | 0.0 | 0.00 | 0.00 | 0.00 | 83 | 1010.4 |
| 20260507002045 | 8 | 46 | 0.0 | 0.0 | 0.00 | 0.00 | 0.00 | 82 | 1010.5 |
| 20260507001516 | 8 | 46 | 0.0 | 0.0 | 0.00 | 0.00 | 0.00 | 82 | 1010.5 |
| 20260507001003 | 8 | 19 | 0.0 | 0.0 | 0.00 | 0.00 | 0.00 | 81 | 1010.5 |
| 20260507000553 | 8 | 23 | 0.0 | 0.0 | 0.00 | 0.00 | 0.00 | 81 | 1010.5 |
| 20260507000010 | 8 | 30 | 0.0 | 0.0 | 0.00 | 0.00 | 0.00 | 81 | 1010.5 |
| 20260506235601 | 8 | 33 | 0.0 | 0.0 | 0.00 | 0.00 | 0.00 | 80 | 1010.6 |
| 20260506235050 | 8 | 41 | 0.0 | 0.0 | 0.00 | 0.00 | 0.00 | 80 | 1010.5 |
| 20260506234508 | 9 | 35 | 0.0 | 0.0 | 0.00 | 0.00 | 0.00 | 79 | 1010.5 |
| 20260506234058 | 9 | 30 | 0.0 | 0.0 | 0.00 | 0.00 | 0.00 | 78 | 1010.5 |
| 20260506233546 | 9 | 30 | 0.0 | 0.0 | 0.00 | 0.00 | 0.00 | 77 | 1010.6 |
| 20260506233014 | 10 | 34 | 0.0 | 0.0 | 0.00 | 0.00 | 0.00 | 77 | 1010.6 |
| 20260506232503 | 10 | 46 | 0.0 | 0.0 | 0.00 | 0.00 | 0.00 | 76 | 1010.6 |
| 20260506232052 | 10 | 30 | 0.0 | 0.0 | 0.00 | 0.00 | 0.00 | 74 | 1010.5 |
| 20260506231513 | 10 | 20 | 0.0 | 1.6 | 0.00 | 0.00 | 0.00 | 73 | 1010.5 |
| 20260506231102 | 11 | 9 | 0.0 | 1.6 | 0.00 | 0.00 | 0.00 | 71 | 1010.6 |
| 20260506230548 | 11 | 22 | 0.0 | 4.8 | 0.00 | 0.00 | 0.00 | 70 | 1010.5 |
| 20260506230014 | 11 | 24 | 0.0 | 4.8 | 0.00 | 0.00 | 0.00 | 68 | 1010.5 |
| 20260506225502 | 12 | 39 | 0.0 | 4.8 | 0.00 | 0.00 | 0.00 | 66 | 1010.5 |
| 20260506225053 | 12 | 279 | 0.0 | 8.0 | 0.00 | 0.00 | 0.00 | 66 | 1010.5 |
| 20260506224522 | 12 | 250 | 1.6 | 8.0 | 0.00 | 0.00 | 0.00 | 66 | 1010.5 |
| 20260506224010 | 12 | 332 | 0.0 | 4.8 | 0.00 | 0.00 | 0.00 | 68 | 1010.5 |
| 20260506223604 | 11 | 360 | 0.0 | 3.2 | 0.00 | 0.00 | 0.00 | 68 | 1010.6 |
| 20260506223019 | 12 | 40 | 0.0 | 4.8 | 0.00 | 0.00 | 0.00 | 69 | 1010.6 |
| 20260506222508 | 11 | 348 | 0.0 | 4.8 | 0.00 | 0.00 | 0.00 | 67 | 1010.7 |
| 20260506222059 | 12 | 323 | 0.0 | 1.6 | 0.00 | 0.00 | 0.00 | 68 | 1010.7 |
| 20260506221528 | 12 | 13 | 0.0 | 3.2 | 0.00 | 0.00 | 0.00 | 67 | 1010.7 |
| 20260506221016 | 12 | 19 | 0.0 | 4.8 | 0.00 | 0.00 | 0.00 | 67 | 1010.8 |
| 20260506220505 | 12 | 5 | 0.0 | 4.8 | 0.00 | 0.00 | 0.00 | 66 | 1010.8 |
| 20260506220025 | 11 | 342 | 0.0 | 3.2 | 0.00 | 0.00 | 0.00 | 67 | 1010.8 |
| 20260506215514 | 11 | 344 | 0.0 | 3.2 | 0.00 | 0.00 | 0.00 | 69 | 1010.8 |
| 20260506215002 | 11 | 360 | 0.0 | 4.8 | 0.00 | 0.00 | 0.00 | 70 | 1010.7 |
| 20260506214524 | 10 | 9 | 1.6 | 8.0 | 0.00 | 0.00 | 0.00 | 71 | 1010.7 |
| 20260506214012 | 10 | 322 | 0.0 | 8.0 | 0.00 | 0.00 | 0.00 | 72 | 1010.7 |
| 20260506213500 | 10 | 32 | 0.0 | 3.2 | 0.00 | 0.00 | 0.00 | 73 | 1010.7 |
| 20260506213021 | 10 | 30 | 0.0 | 3.2 | 0.00 | 0.00 | 0.00 | 72 | 1010.7 |
| 20260506212509 | 10 | 28 | 0.0 | 4.8 | 0.00 | 0.00 | 0.00 | 71 | 1010.6 |
| 20260506212100 | 10 | 44 | 1.6 | 4.8 | 0.00 | 0.00 | 0.00 | 70 | 1010.6 |
| 20260506211535 | 10 | 31 | 0.0 | 4.8 | 0.00 | 0.00 | 0.00 | 73 | 1010.5 |
| 20260506211008 | 10 | 22 | 1.6 | 4.8 | 0.00 | 0.00 | 0.00 | 74 | 1010.5 |
| 20260506210559 | 10 | 32 | 0.0 | 1.6 | 0.00 | 0.00 | 0.00 | 73 | 1010.6 |
| 20260506210029 | 11 | 34 | 0.0 | 1.6 | 0.00 | 0.00 | 0.00 | 73 | 1010.5 |
| 20260506205503 | 11 | 36 | 0.0 | 0.0 | 0.00 | 0.00 | 0.00 | 74 | 1010.5 |
| 20260506205054 | 11 | 46 | 0.0 | 0.0 | 0.00 | 0.00 | 0.00 | 74 | 1010.4 |
| 20260506204516 | 11 | 34 | 0.0 | 0.0 | 0.00 | 0.00 | 0.00 | 73 | 1010.5 |
| 20260506204002 | 11 | 40 | 0.0 | 0.0 | 0.00 | 0.00 | 0.00 | 73 | 1010.5 |
| 20260506203552 | 11 | 26 | 0.0 | 0.0 | 0.00 | 0.00 | 0.00 | 73 | 1010.4 |
| 20260506203019 | 11 | 5 | 0.0 | 0.0 | 0.00 | 0.00 | 0.00 | 72 | 1010.4 |
| 20260506202507 | 11 | 54 | 0.0 | 0.0 | 0.00 | 0.00 | 0.00 | 72 | 1010.4 |
| 20260506202058 | 11 | 54 | 0.0 | 0.0 | 0.00 | 0.00 | 0.00 | 72 | 1010.2 |
| 20260506201517 | 11 | 59 | 0.0 | 0.0 | 0.00 | 0.00 | 0.00 | 72 | 1010.2 |
| 20260506201008 | 11 | 59 | 0.0 | 1.6 | 0.00 | 0.00 | 0.00 | 71 | 1010.2 |
| 20260506200555 | 11 | 54 | 0.0 | 1.6 | 0.00 | 0.00 | 0.00 | 70 | 1010.2 |
| 20260506200014 | 11 | 19 | 0.0 | 4.8 | 0.00 | 0.00 | 0.00 | 72 | 1010.2 |
| 20260506195504 | 11 | 28 | 1.6 | 4.8 | 0.00 | 0.00 | 0.00 | 69 | 1010.2 |
| 20260506195053 | 12 | 32 | 0.0 | 4.8 | 0.00 | 0.00 | 0.00 | 68 | 1010.1 |
| 20260506194511 | 12 | 19 | 1.6 | 4.8 | 0.00 | 0.00 | 0.00 | 66 | 1010.1 |
| 20260506194105 | 12 | 44 | 0.0 | 1.6 | 0.00 | 0.00 | 0.00 | 66 | 1010.1 |
| 20260506193551 | 12 | 31 | 0.0 | 3.2 | 0.00 | 0.00 | 0.00 | 67 | 1010.0 |
| 20260506193009 | 13 | 63 | 0.0 | 4.8 | 0.00 | 0.00 | 0.00 | 63 | 1010.0 |
| 20260506192559 | 13 | 28 | 1.6 | 3.2 | 0.00 | 0.00 | 0.00 | 61 | 1009.9 |
| 20260506192048 | 13 | 13 | 0.0 | 3.2 | 0.00 | 0.00 | 0.00 | 60 | 1009.9 |
| 20260506191517 | 15 | 19 | 0.0 | 3.2 | 0.00 | 0.00 | 0.00 | 59 | 1009.9 |
| 20260506191005 | 15 | 13 | 0.0 | 3.2 | 0.00 | 0.00 | 0.00 | 57 | 1009.9 |
| 20260506190557 | 16 | 30 | 0.0 | 3.2 | 0.00 | 0.00 | 0.00 | 56 | 1009.9 |
| 20260506190014 | 17 | 5 | 0.0 | 3.2 | 0.00 | 0.00 | 0.00 | 54 | 1009.9 |
| 20260506185502 | 17 | 311 | 0.0 | 0.0 | 0.00 | 0.00 | 0.00 | 47 | 1009.8 |
| 20260506185052 | 17 | 5 | 0.0 | 0.0 | 0.00 | 0.00 | 0.00 | 46 | 1009.9 |
| 20260506184525 | 17 | 56 | 0.0 | 3.2 | 0.00 | 0.00 | 0.00 | 44 | 1009.9 |
| 20260506184011 | 18 | 26 | 0.0 | 9.7 | 0.00 | 0.00 | 0.00 | 42 | 1009.9 |
| 20260506183601 | 18 | 51 | 1.6 | 9.7 | 0.00 | 0.00 | 0.00 | 42 | 1009.9 |
| 20260506183017 | 18 | 152 | 0.0 | 3.2 | 0.00 | 0.00 | 0.00 | 41 | 1009.9 |
| 20260506182505 | 18 | 211 | 0.0 | 3.2 | 0.00 | 0.00 | 0.00 | 40 | 1009.9 |
| 20260506182056 | 19 | 167 | 0.0 | 3.2 | 0.00 | 0.00 | 0.00 | 38 | 1009.9 |
| 20260506181533 | 19 | 121 | 0.0 | 3.2 | 0.00 | 0.00 | 0.00 | 37 | 1010.0 |
| 20260506181003 | 19 | 64 | 0.0 | 1.6 | 0.00 | 0.00 | 0.00 | 37 | 1009.9 |
| 20260506180557 | 19 | 73 | 0.0 | 1.6 | 0.00 | 0.00 | 0.00 | 37 | 1010.0 |
| 20260506180019 | 19 | 73 | 0.0 | 1.6 | 0.00 | 0.00 | 0.00 | 38 | 1010.0 |
| 20260506175511 | 19 | 83 | 0.0 | 3.2 | 0.00 | 0.00 | 0.00 | 39 | 1010.0 |
| 20260506175057 | 19 | 98 | 0.0 | 3.2 | 0.00 | 0.00 | 0.00 | 38 | 1010.0 |
| 20260506174533 | 19 | 326 | 0.0 | 3.2 | 0.00 | 0.00 | 0.00 | 39 | 1010.1 |
| 20260506174021 | 19 | 65 | 0.0 | 3.2 | 0.00 | 0.00 | 0.00 | 39 | 1010.1 |
| 20260506173508 | 19 | 96 | 0.0 | 4.8 | 0.00 | 0.00 | 0.00 | 40 | 1010.1 |
| 20260506173047 | 19 | 38 | 0.0 | 6.4 | 0.00 | 0.00 | 0.00 | 39 | 1010.2 |
| 20260506172513 | 19 | 5 | 1.6 | 6.4 | 0.00 | 0.00 | 0.00 | 42 | 1010.2 |
| 20260506172003 | 19 | 95 | 1.6 | 6.4 | 0.00 | 0.00 | 0.00 | 39 | 1010.3 |
| 20260506171528 | 19 | 157 | 0.0 | 6.4 | 0.00 | 0.00 | 0.00 | 38 | 1010.3 |
| 20260506171012 | 19 | 180 | 0.0 | 6.4 | 0.00 | 0.00 | 0.00 | 40 | 1010.3 |
| 20260506170603 | 18 | 320 | 0.0 | 4.8 | 0.00 | 0.00 | 0.00 | 41 | 1010.3 |
| 20260506170020 | 18 | 271 | 0.0 | 4.8 | 0.00 | 0.20 | 0.00 | 41 | 1010.4 |
| 20260506165508 | 18 | 321 | 1.6 | 4.8 | 0.00 | 0.20 | 0.00 | 43 | 1010.4 |
| 20260506165058 | 18 | 315 | 1.6 | 4.8 | 0.00 | 0.20 | 0.00 | 42 | 1010.4 |
| 20260506164518 | 18 | 355 | 0.0 | 6.4 | 0.00 | 0.20 | 0.00 | 46 | 1010.5 |
| 20260506164005 | 18 | 360 | 1.6 | 6.4 | 0.00 | 0.20 | 0.00 | 46 | 1010.5 |
| 20260506163556 | 17 | 77 | 0.0 | 3.2 | 0.00 | 0.20 | 0.00 | 46 | 1010.5 |
| 20260506163028 | 17 | 325 | 0.0 | 1.6 | 0.00 | 0.20 | 0.00 | 48 | 1010.6 |
| 20260506162512 | 17 | 325 | 0.0 | 3.2 | 0.00 | 0.20 | 0.00 | 49 | 1010.7 |
| 20260506162001 | 17 | 325 | 0.0 | 4.8 | 0.00 | 0.20 | 0.00 | 45 | 1010.6 |
| 20260506161523 | 17 | 338 | 0.0 | 3.2 | 0.00 | 0.20 | 0.00 | 47 | 1010.7 |
| 20260506161013 | 17 | 315 | 0.0 | 3.2 | 0.00 | 0.20 | 0.00 | 45 | 1010.7 |
| 20260506160601 | 17 | 315 | 0.0 | 3.2 | 0.00 | 0.20 | 0.00 | 44 | 1010.7 |
| 20260506160015 | 17 | 163 | 0.0 | 4.8 | 0.00 | 0.20 | 0.00 | 48 | 1010.9 |
| 20260506155502 | 17 | 142 | 1.6 | 4.8 | 0.00 | 0.20 | 0.00 | 44 | 1010.9 |
| 20260506155057 | 17 | 130 | 0.0 | 3.2 | 0.00 | 0.20 | 0.00 | 44 | 1010.9 |
| 20260506154523 | 17 | 355 | 0.0 | 3.2 | 0.00 | 0.20 | 0.00 | 44 | 1010.9 |
| 20260506154012 | 17 | 74 | 0.0 | 3.2 | 0.00 | 0.20 | 0.00 | 44 | 1011.0 |
| 20260506153602 | 17 | 316 | 0.0 | 6.4 | 0.00 | 0.20 | 0.00 | 44 | 1010.9 |
| 20260506153023 | 18 | 256 | 1.6 | 8.0 | 0.00 | 0.20 | 0.00 | 45 | 1011.0 |
| 20260506152508 | 18 | 223 | 3.2 | 6.4 | 0.00 | 0.20 | 0.00 | 45 | 1011.1 |
| 20260506152101 | 18 | 313 | 0.0 | 4.8 | 0.00 | 0.20 | 0.00 | 45 | 1011.1 |
| 20260506151515 | 18 | 219 | 0.0 | 6.4 | 0.00 | 0.20 | 0.00 | 44 | 1011.1 |
| 20260506151004 | 18 | 184 | 3.2 | 11.3 | 0.00 | 0.20 | 0.00 | 46 | 1011.1 |
| 20260506150555 | 18 | 194 | 4.8 | 11.3 | 0.00 | 0.20 | 0.00 | 43 | 1011.3 |
| 20260506150016 | 19 | 173 | 4.8 | 11.3 | 0.00 | 0.28 | 0.00 | 44 | 1011.2 |
| 20260506145502 | 19 | 246 | 3.2 | 9.7 | 0.00 | 0.28 | 0.00 | 44 | 1011.3 |
| 20260506145052 | 19 | 124 | 1.6 | 12.9 | 0.00 | 0.28 | 0.00 | 43 | 1011.4 |
| 20260506144514 | 19 | 264 | 4.8 | 11.3 | 0.00 | 0.28 | 0.00 | 43 | 1011.5 |
| 20260506144105 | 18 | 185 | 4.8 | 9.7 | 0.00 | 0.28 | 0.00 | 45 | 1011.6 |
| 20260506143549 | 18 | 94 | 0.0 | 9.7 | 0.00 | 0.28 | 0.00 | 43 | 1011.8 |
| 20260506143023 | 18 | 210 | 1.6 | 11.3 | 0.00 | 0.28 | 0.00 | 45 | 1011.8 |
| 20260506142503 | 18 | 182 | 3.2 | 11.3 | 0.00 | 0.28 | 0.00 | 45 | 1012.0 |
| 20260506142052 | 18 | 206 | 1.6 | 20.9 | 0.00 | 0.28 | 0.00 | 45 | 1012.0 |
| 20260506141513 | 19 | 192 | 9.7 | 20.9 | 0.00 | 0.28 | 0.00 | 44 | 1012.1 |
| 20260506141001 | 19 | 240 | 3.2 | 16.1 | 0.00 | 0.28 | 0.00 | 45 | 1012.1 |
| 20260506140555 | 19 | 205 | 0.0 | 11.3 | 0.00 | 0.28 | 0.00 | 47 | 1012.1 |
| 20260506140017 | 18 | 186 | 3.2 | 14.5 | 0.00 | 0.28 | 0.00 | 45 | 1012.2 |
| 20260506135600 | 18 | 177 | 8.0 | 14.5 | 0.00 | 0.28 | 0.00 | 46 | 1012.3 |
| 20260506135049 | 18 | 186 | 1.6 | 16.1 | 0.00 | 0.28 | 0.00 | 47 | 1012.3 |
| 20260506134517 | 18 | 219 | 4.8 | 11.3 | 0.00 | 0.28 | 0.00 | 50 | 1012.5 |
| 20260506134005 | 17 | 146 | 1.6 | 6.4 | 0.00 | 0.28 | 0.00 | 49 | 1012.6 |
| 20260506133556 | 17 | 84 | 0.0 | 11.3 | 0.00 | 0.28 | 0.00 | 50 | 1012.6 |
| 20260506133013 | 17 | 167 | 3.2 | 16.1 | 0.00 | 0.28 | 0.00 | 49 | 1012.7 |
| 20260506132503 | 18 | 227 | 6.4 | 14.5 | 0.00 | 0.28 | 0.00 | 50 | 1012.7 |
| 20260506132053 | 17 | 196 | 1.6 | 6.4 | 0.00 | 0.28 | 0.00 | 52 | 1012.8 |
| 20260506131520 | 16 | 221 | 0.0 | 8.0 | 0.00 | 0.28 | 0.00 | 56 | 1012.8 |
| 20260506131011 | 16 | 345 | 1.6 | 8.0 | 0.00 | 0.28 | 0.00 | 54 | 1012.9 |
| 20260506130558 | 16 | 333 | 1.6 | 8.0 | 0.00 | 0.28 | 0.00 | 58 | 1012.9 |
| 20260506130016 | 16 | 335 | 3.2 | 8.0 | 0.00 | 0.43 | 0.00 | 59 | 1013.0 |
| 20260506125504 | 16 | 355 | 0.0 | 3.2 | 0.00 | 0.43 | 0.00 | 57 | 1012.9 |
| 20260506125054 | 16 | 334 | 0.0 | 4.8 | 0.00 | 0.43 | 0.00 | 57 | 1013.1 |
| 20260506124514 | 16 | 219 | 0.0 | 6.4 | 0.00 | 0.43 | 0.00 | 58 | 1013.2 |
| 20260506124003 | 16 | 229 | 3.2 | 8.0 | 0.00 | 0.43 | 0.00 | 58 | 1013.2 |
| 20260506123554 | 16 | 326 | 3.2 | 9.7 | 0.00 | 0.43 | 0.00 | 57 | 1013.2 |
| 20260506123011 | 16 | 315 | 0.0 | 9.7 | 0.00 | 0.43 | 0.00 | 55 | 1013.3 |
| 20260506122604 | 16 | 53 | 0.0 | 6.4 | 0.00 | 0.43 | 0.00 | 57 | 1013.4 |
| 20260506122050 | 16 | 322 | 0.0 | 4.8 | 0.00 | 0.43 | 0.00 | 54 | 1013.6 |
| 20260506121510 | 16 | 246 | 0.0 | 4.8 | 0.00 | 0.43 | 0.00 | 56 | 1013.5 |
| 20260506121100 | 16 | 251 | 1.6 | 11.3 | 0.00 | 0.43 | 0.00 | 56 | 1013.6 |
| 20260506120549 | 16 | 180 | 3.2 | 11.3 | 0.00 | 0.43 | 0.00 | 58 | 1013.6 |
| 20260506120015 | 16 | 125 | 1.6 | 16.1 | 0.00 | 0.43 | 0.00 | 57 | 1013.8 |
| 20260506115504 | 16 | 167 | 8.0 | 17.7 | 0.00 | 0.43 | 0.00 | 59 | 1013.7 |
| 20260506115055 | 16 | 71 | 0.0 | 8.0 | 0.00 | 0.43 | 0.00 | 63 | 1013.8 |
| 20260506114514 | 15 | 124 | 1.6 | 8.0 | 0.00 | 0.43 | 0.00 | 61 | 1013.7 |
| 20260506114003 | 15 | 5 | 0.0 | 4.8 | 0.00 | 0.43 | 0.00 | 61 | 1013.9 |
| 20260506113552 | 15 | 333 | 0.0 | 4.8 | 0.00 | 0.43 | 0.00 | 66 | 1014.0 |
| 20260506113021 | 15 | 5 | 0.0 | 4.8 | 0.00 | 0.43 | 0.00 | 65 | 1014.0 |
| 20260506112509 | 14 | 143 | 1.6 | 4.8 | 0.00 | 0.43 | 0.00 | 65 | 1014.2 |
| 20260506112104 | 14 | 245 | 0.0 | 3.2 | 0.00 | 0.43 | 0.00 | 68 | 1014.2 |
| 20260506111520 | 14 | 169 | 0.0 | 3.2 | 0.00 | 0.43 | 0.00 | 67 | 1014.2 |
| 20260506111008 | 14 | 169 | 0.0 | 4.8 | 0.00 | 0.43 | 0.00 | 67 | 1014.4 |
| 20260506110559 | 13 | 220 | 0.0 | 6.4 | 0.00 | 0.43 | 0.00 | 69 | 1014.3 |
| 20260506110017 | 13 | 186 | 1.6 | 6.4 | 0.00 | 0.43 | 0.00 | 68 | 1014.4 |
| 20260506105505 | 13 | 110 | 0.0 | 3.2 | 0.00 | 0.43 | 0.00 | 69 | 1014.4 |
| 20260506105056 | 13 | 111 | 0.0 | 4.8 | 0.00 | 0.43 | 0.00 | 68 | 1014.4 |
| 20260506104550 | 13 | 43 | 0.0 | 4.8 | 0.00 | 0.43 | 0.00 | 70 | 1014.5 |
| 20260506104009 | 13 | 343 | 0.0 | 4.8 | 0.00 | 0.43 | 0.00 | 72 | 1014.5 |
| 20260506103559 | 12 | 226 | 0.0 | 6.4 | 0.00 | 0.43 | 0.00 | 73 | 1014.5 |
| 20260506103017 | 12 | 227 | 1.6 | 8.0 | 0.00 | 0.43 | 0.00 | 73 | 1014.6 |
| 20260506102506 | 12 | 260 | 3.2 | 8.0 | 0.00 | 0.43 | 0.00 | 74 | 1014.6 |
| 20260506102057 | 12 | 252 | 0.0 | 3.2 | 0.00 | 0.43 | 0.00 | 75 | 1014.6 |
| 20260506101517 | 12 | 257 | 0.0 | 6.4 | 0.00 | 0.43 | 0.00 | 75 | 1014.7 |
| 20260506101004 | 12 | 325 | 0.0 | 6.4 | 0.00 | 0.43 | 0.00 | 74 | 1014.5 |
| 20260506100556 | 12 | 309 | 1.6 | 4.8 | 0.00 | 0.43 | 0.00 | 75 | 1014.5 |
| 20260506100014 | 12 | 5 | 0.0 | 3.2 | 0.00 | 0.43 | 0.00 | 75 | 1014.6 |
| 20260506095502 | 12 | 311 | 0.0 | 4.8 | 0.00 | 0.43 | 0.00 | 75 | 1014.6 |
| 20260506095052 | 12 | 333 | 0.0 | 4.8 | 0.00 | 0.43 | 0.00 | 75 | 1014.6 |
| 20260506094532 | 12 | 13 | 0.0 | 3.2 | 0.00 | 0.43 | 0.00 | 76 | 1014.6 |
| 20260506094014 | 12 | 340 | 0.0 | 1.6 | 0.00 | 0.43 | 0.00 | 75 | 1014.5 |
| 20260506093604 | 12 | 140 | 0.0 | 3.2 | 0.00 | 0.43 | 0.00 | 75 | 1014.6 |
| 20260506093020 | 12 | 140 | 0.0 | 6.4 | 0.00 | 0.43 | 0.00 | 75 | 1014.6 |
| 20260506092508 | 12 | 200 | 1.6 | 6.4 | 0.00 | 0.43 | 0.00 | 77 | 1014.6 |
| 20260506092059 | 12 | 186 | 0.0 | 4.8 | 0.00 | 0.43 | 0.00 | 76 | 1014.6 |
| 20260506091519 | 12 | 184 | 3.2 | 6.4 | 0.00 | 0.43 | 0.00 | 74 | 1014.6 |
| 20260506091010 | 12 | 196 | 3.2 | 6.4 | 0.00 | 0.43 | 0.00 | 74 | 1014.5 |
| 20260506090557 | 12 | 348 | 0.0 | 6.4 | 0.00 | 0.43 | 0.00 | 74 | 1014.5 |